| time (UTC) | temp F | wind direction | speed MPH | gust MPH | rain 1hr in | rain 24hr in | rain mn in | humidity % | barometer mb |
| 20260831010601 | 77 | 0.0 | 0.0 | 0.00 | 0.00 | 0.00 | 83 | 1023.0 | |
| 20260831005520 | 78 | 0.0 | 0.0 | 0.00 | 0.00 | 0.00 | 82 | 1023.1 | |
| 20260831004520 | 78 | 0.0 | 0.0 | 0.00 | 0.00 | 0.00 | 81 | 1022.9 | |
| 20260831003521 | 78 | 0.0 | 0.0 | 0.00 | 0.00 | 0.00 | 81 | 1023.0 | |
| 20260831002523 | 79 | 0.0 | 0.0 | 0.00 | 0.00 | 0.00 | 80 | 1023.0 | |
| 20260831001521 | 79 | 0.0 | 0.0 | 0.00 | 0.00 | 0.00 | 79 | 1022.9 | |
| 20260831000520 | 80 | 0.0 | 0.0 | 0.00 | 0.00 | 0.00 | 78 | 1022.9 | |
| 20260830235520 | 81 | 0.0 | 0.0 | 0.00 | 0.00 | 0.00 | 77 | 1022.9 | |
| 20260830234521 | 81 | 0.0 | 0.0 | 0.00 | 0.00 | 0.00 | 76 | 1022.9 | |
| 20260830233520 | 82 | 0.0 | 0.0 | 0.00 | 0.00 | 0.00 | 76 | 1022.9 | |
| 20260830232521 | 82 | 0.0 | 0.0 | 0.00 | 0.00 | 0.00 | 76 | 1023.2 | |
| 20260830231521 | 83 | 0.0 | 0.0 | 0.00 | 0.00 | 0.00 | 75 | 1023.3 | |
| 20260830230521 | 83 | 0.0 | 1.0 | 0.00 | 0.00 | 0.00 | 74 | 1023.3 | |
| 20260830225521 | 84 | 0.0 | 0.0 | 0.00 | 0.00 | 0.00 | 74 | 1023.3 | |
| 20260830224520 | 84 | 0.0 | 0.0 | 0.00 | 0.00 | 0.00 | 73 | 1023.2 | |
| 20260830223522 | 84 | 0.0 | 1.0 | 0.00 | 0.00 | 0.00 | 73 | 1023.2 | |
| 20260830222520 | 85 | 0.0 | 0.0 | 0.00 | 0.00 | 0.00 | 73 | 1023.3 | |
| 20260830221540 | 85 | 0.0 | 0.0 | 0.00 | 0.00 | 0.00 | 72 | 1023.1 | |
| 20260830220520 | 85 | 0.0 | 4.0 | 0.00 | 0.00 | 0.00 | 71 | 1022.9 | |
| 20260830215520 | 85 | 0.0 | 2.0 | 0.00 | 0.00 | 0.00 | 71 | 1022.9 | |
| 20260830214541 | 85 | 0.0 | 1.0 | 0.00 | 0.00 | 0.00 | 70 | 1022.7 | |
| 20260830213523 | 86 | 0.0 | 1.0 | 0.00 | 0.00 | 0.00 | 72 | 1022.8 | |
| 20260830212520 | 86 | 0.0 | 1.0 | 0.00 | 0.00 | 0.00 | 72 | 1022.8 | |
| 20260830211522 | 86 | 0.0 | 1.0 | 0.00 | 0.00 | 0.00 | 70 | 1022.9 | |
| 20260830211022 | 87 | 0.0 | 1.0 | 0.00 | 0.00 | 0.00 | 68 | 1022.9 | |
| 20260830210022 | 86 | 0.0 | 1.0 | 0.00 | 0.00 | 0.00 | 70 | 1022.9 | |
| 20260830205022 | 87 | 0.0 | 2.0 | 0.00 | 0.00 | 0.00 | 69 | 1023.2 | |
| 20260830204022 | 86 | 0.0 | 2.0 | 0.00 | 0.00 | 0.00 | 69 | 1023.2 | |
| 20260830203023 | 87 | 0.0 | 1.0 | 0.00 | 0.00 | 0.00 | 69 | 1023.3 | |
| 20260830202022 | 87 | 0.0 | 2.0 | 0.00 | 0.00 | 0.00 | 69 | 1023.4 | |
| 20260830201022 | 87 | 0.0 | 0.0 | 0.00 | 0.00 | 0.00 | 70 | 1023.6 | |
| 20260830200022 | 88 | 0.0 | 1.0 | 0.00 | 0.00 | 0.00 | 69 | 1023.7 | |
| 20260830195020 | 86 | 0.0 | 2.0 | 0.00 | 0.00 | 0.00 | 71 | 1023.8 | |
| 20260830194022 | 86 | 0.0 | 1.0 | 0.00 | 0.00 | 0.00 | 71 | 1024.0 | |
| 20260830193022 | 86 | 0.0 | 1.0 | 0.00 | 0.00 | 0.00 | 72 | 1024.1 | |
| 20260830192022 | 85 | 0.0 | 1.0 | 0.00 | 0.00 | 0.00 | 72 | 1024.3 | |
| 20260830191022 | 85 | 0.0 | 0.0 | 0.00 | 0.00 | 0.00 | 71 | 1024.3 | |
| 20260830190022 | 86 | 0.0 | 1.0 | 0.00 | 0.00 | 0.00 | 72 | 1024.4 | |
| 20260830185044 | 86 | 0.0 | 1.0 | 0.00 | 0.00 | 0.00 | 72 | 1024.4 | |
| 20260830184022 | 86 | 0.0 | 0.0 | 0.00 | 0.00 | 0.00 | 72 | 1024.7 | |
| 20260830183022 | 86 | 0.0 | 1.0 | 0.00 | 0.00 | 0.00 | 72 | 1024.9 | |
| 20260830182022 | 85 | 0.0 | 1.0 | 0.00 | 0.00 | 0.00 | 75 | 1025.0 | |
| 20260830181042 | 85 | 0.0 | 1.0 | 0.00 | 0.00 | 0.00 | 75 | 1025.2 | |
| 20260830180022 | 85 | 0.0 | 1.0 | 0.00 | 0.00 | 0.00 | 74 | 1025.3 | |
| 20260830175042 | 85 | 0.0 | 1.0 | 0.00 | 0.00 | 0.00 | 75 | 1025.3 | |
| 20260830174022 | 84 | 0.0 | 1.0 | 0.00 | 0.00 | 0.00 | 75 | 1025.4 | |
| 20260830173018 | 83 | 0.0 | 0.0 | 0.00 | 0.00 | 0.00 | 78 | 1025.4 | |
| 20260830172522 | 84 | 0.0 | 0.0 | 0.00 | 0.00 | 0.00 | 75 | 1025.5 | |
| 20260830171542 | 83 | 0.0 | 1.0 | 0.00 | 0.00 | 0.00 | 78 | 1025.5 | |
| 20260830170522 | 84 | 0.0 | 1.0 | 0.00 | 0.00 | 0.00 | 77 | 1025.6 | |
| 20260830165524 | 84 | 0.0 | 1.0 | 0.00 | 0.00 | 0.00 | 77 | 1025.7 | |
| 20260830164522 | 83 | 0.0 | 1.0 | 0.00 | 0.00 | 0.00 | 77 | 1025.8 | |
| 20260830163522 | 83 | 0.0 | 1.0 | 0.00 | 0.00 | 0.00 | 78 | 1025.9 | |
| 20260830162522 | 84 | 0.0 | 1.0 | 0.00 | 0.00 | 0.00 | 78 | 1026.1 | |
| 20260830161522 | 81 | 0.0 | 1.0 | 0.00 | 0.00 | 0.00 | 81 | 1026.1 | |
| 20260830160522 | 82 | 0.0 | 1.0 | 0.00 | 0.00 | 0.00 | 79 | 1026.1 | |
| 20260830155542 | 80 | 0.0 | 1.0 | 0.00 | 0.00 | 0.00 | 82 | 1026.1 | |
| 20260830154524 | 80 | 0.0 | 1.0 | 0.00 | 0.00 | 0.00 | 83 | 1026.2 | |
| 20260830153521 | 79 | 0.0 | 0.0 | 0.00 | 0.00 | 0.00 | 84 | 1026.3 | |
| 20260830152522 | 79 | 0.0 | 1.0 | 0.00 | 0.00 | 0.00 | 85 | 1026.4 | |
| 20260830151523 | 79 | 0.0 | 1.0 | 0.00 | 0.00 | 0.00 | 84 | 1026.5 | |
| 20260830150522 | 78 | 0.0 | 0.0 | 0.00 | 0.00 | 0.00 | 87 | 1026.5 | |
| 20260830145522 | 77 | 0.0 | 0.0 | 0.00 | 0.00 | 0.00 | 87 | 1026.5 | |
| 20260830144522 | 77 | 0.0 | 1.0 | 0.00 | 0.00 | 0.00 | 89 | 1026.6 | |
| 20260830143521 | 76 | 0.0 | 0.0 | 0.00 | 0.00 | 0.00 | 91 | 1026.6 | |
| 20260830142527 | 75 | 0.0 | 1.0 | 0.00 | 0.00 | 0.00 | 91 | 1026.7 | |
| 20260830141542 | 75 | 0.0 | 0.0 | 0.00 | 0.00 | 0.00 | 92 | 1026.7 | |
| 20260830140521 | 74 | 0.0 | 1.0 | 0.00 | 0.00 | 0.00 | 94 | 1026.7 | |
| 20260830135521 | 74 | 0.0 | 1.0 | 0.00 | 0.00 | 0.00 | 94 | 1026.9 | |
| 20260830134521 | 74 | 0.0 | 0.0 | 0.00 | 0.00 | 0.00 | 95 | 1026.8 | |
| 20260830133542 | 73 | 0.0 | 0.0 | 0.00 | 0.00 | 0.00 | 95 | 1026.8 | |
| 20260830132525 | 73 | 0.0 | 0.0 | 0.00 | 0.00 | 0.00 | 97 | 1026.7 | |
| 20260830131522 | 73 | 0.0 | 0.0 | 0.00 | 0.00 | 0.00 | 96 | 1026.6 | |
| 20260830130522 | 73 | 0.0 | 0.0 | 0.00 | 0.00 | 0.00 | 98 | 1026.6 | |
| 20260830125521 | 72 | 0.0 | 0.0 | 0.00 | 0.00 | 0.00 | 98 | 1026.6 | |
| 20260830124541 | 72 | 0.0 | 0.0 | 0.00 | 0.00 | 0.00 | 98 | 1026.6 | |
| 20260830123523 | 72 | 0.0 | 0.0 | 0.00 | 0.00 | 0.00 | 98 | 1026.6 | |
| 20260830122522 | 72 | 0.0 | 0.0 | 0.00 | 0.00 | 0.00 | 98 | 1026.6 | |
| 20260830121522 | 71 | 0.0 | 0.0 | 0.00 | 0.00 | 0.00 | 98 | 1026.5 | |
| 20260830120523 | 71 | 0.0 | 0.0 | 0.00 | 0.00 | 0.00 | 98 | 1026.5 | |
| 20260830115521 | 71 | 0.0 | 0.0 | 0.00 | 0.00 | 0.00 | 98 | 1026.4 | |
| 20260830114521 | 71 | 0.0 | 0.0 | 0.00 | 0.00 | 0.00 | 98 | 1026.4 | |
| 20260830113521 | 71 | 0.0 | 0.0 | 0.00 | 0.00 | 0.00 | 98 | 1026.3 | |
| 20260830112523 | 71 | 0.0 | 0.0 | 0.00 | 0.00 | 0.00 | 98 | 1026.3 | |
| 20260830112021 | 71 | 0.0 | 1.0 | 0.00 | 0.00 | 0.00 | 98 | 1026.3 | |
| 20260830111021 | 71 | 0.0 | 0.0 | 0.00 | 0.00 | 0.00 | 98 | 1026.2 | |
| 20260830110021 | 72 | 0.0 | 0.0 | 0.00 | 0.00 | 0.00 | 98 | 1026.1 | |
| 20260830105020 | 72 | 0.0 | 0.0 | 0.00 | 0.00 | 0.00 | 98 | 1025.9 | |
| 20260830104020 | 72 | 0.0 | 0.0 | 0.00 | 0.00 | 0.00 | 98 | 1025.8 | |
| 20260830103021 | 72 | 0.0 | 0.0 | 0.00 | 0.00 | 0.00 | 98 | 1025.5 | |
| 20260830102021 | 72 | 0.0 | 0.0 | 0.00 | 0.00 | 0.00 | 98 | 1025.6 | |
| 20260830101021 | 72 | 0.0 | 0.0 | 0.00 | 0.00 | 0.00 | 98 | 1025.5 | |
| 20260830100020 | 71 | 0.0 | 0.0 | 0.00 | 0.00 | 0.00 | 98 | 1025.4 | |
| 20260830095100 | 71 | 0.0 | 0.0 | 0.00 | 0.00 | 0.00 | 98 | 1025.2 | |
| 20260830094103 | 71 | 0.0 | 0.0 | 0.00 | 0.00 | 0.00 | 98 | 1025.3 | |
| 20260830093020 | 71 | 0.0 | 0.0 | 0.00 | 0.00 | 0.00 | 98 | 1025.1 | |
| 20260830092021 | 71 | 0.0 | 0.0 | 0.00 | 0.00 | 0.00 | 98 | 1025.4 | |
| 20260830091020 | 71 | 0.0 | 0.0 | 0.00 | 0.00 | 0.00 | 98 | 1025.4 | |
| 20260830090022 | 71 | 0.0 | 0.0 | 0.00 | 0.00 | 0.00 | 98 | 1025.4 | |
| 20260830085020 | 71 | 0.0 | 0.0 | 0.00 | 0.00 | 0.00 | 97 | 1025.4 | |
| 20260830084041 | 71 | 0.0 | 0.0 | 0.00 | 0.00 | 0.00 | 97 | 1025.3 | |
| 20260830083022 | 71 | 0.0 | 0.0 | 0.00 | 0.00 | 0.00 | 97 | 1025.3 | |
| 20260830082020 | 71 | 0.0 | 0.0 | 0.00 | 0.00 | 0.00 | 97 | 1025.4 | |
| 20260830081020 | 71 | 0.0 | 0.0 | 0.00 | 0.00 | 0.00 | 97 | 1025.4 | |
| 20260830080024 | 71 | 0.0 | 0.0 | 0.00 | 0.00 | 0.00 | 97 | 1025.4 | |
| 20260830075021 | 71 | 0.0 | 0.0 | 0.00 | 0.00 | 0.00 | 96 | 1025.4 | |
| 20260830074021 | 71 | 0.0 | 0.0 | 0.00 | 0.00 | 0.00 | 96 | 1025.3 | |
| 20260830073021 | 71 | 0.0 | 0.0 | 0.00 | 0.00 | 0.00 | 96 | 1025.5 | |
| 20260830072021 | 71 | 0.0 | 0.0 | 0.00 | 0.00 | 0.00 | 96 | 1025.5 | |
| 20260830071021 | 72 | 0.0 | 0.0 | 0.00 | 0.00 | 0.00 | 96 | 1025.4 | |
| 20260830070021 | 72 | 0.0 | 0.0 | 0.00 | 0.00 | 0.00 | 96 | 1025.3 | |
| 20260830065021 | 72 | 0.0 | 0.0 | 0.00 | 0.00 | 0.00 | 95 | 1025.4 | |
| 20260830064043 | 72 | 0.0 | 0.0 | 0.00 | 0.00 | 0.00 | 95 | 1025.5 | |
| 20260830063021 | 72 | 0.0 | 0.0 | 0.00 | 0.00 | 0.00 | 95 | 1025.6 | |
| 20260830062021 | 72 | 0.0 | 0.0 | 0.00 | 0.00 | 0.00 | 95 | 1025.5 | |
| 20260830061104 | 72 | 0.0 | 0.0 | 0.00 | 0.00 | 0.00 | 94 | 1025.5 | |
| 20260830060021 | 73 | 0.0 | 0.0 | 0.00 | 0.00 | 0.00 | 94 | 1025.6 | |
| 20260830055041 | 73 | 0.0 | 0.0 | 0.00 | 0.00 | 0.00 | 93 | 1025.9 | |
| 20260830054041 | 73 | 0.0 | 0.0 | 0.00 | 0.00 | 0.00 | 93 | 1025.8 | |
| 20260830053021 | 73 | 0.0 | 0.0 | 0.00 | 0.00 | 0.00 | 93 | 1025.9 | |
| 20260830052021 | 74 | 0.0 | 0.0 | 0.00 | 0.00 | 0.00 | 92 | 1026.0 | |
| 20260830051021 | 74 | 0.0 | 0.0 | 0.00 | 0.00 | 0.00 | 92 | 1026.0 | |
| 20260830050021 | 74 | 0.0 | 0.0 | 0.00 | 0.00 | 0.00 | 92 | 1026.0 | |
| 20260830045021 | 74 | 0.0 | 0.0 | 0.00 | 0.00 | 0.00 | 91 | 1026.0 | |
| 20260830044041 | 74 | 0.0 | 0.0 | 0.00 | 0.00 | 0.00 | 91 | 1026.1 | |
| 20260830043041 | 75 | 0.0 | 0.0 | 0.00 | 0.00 | 0.00 | 91 | 1026.1 | |
| 20260830042043 | 75 | 0.0 | 1.0 | 0.00 | 0.00 | 0.00 | 91 | 1026.1 | |
| 20260830041021 | 75 | 0.0 | 1.0 | 0.00 | 0.00 | 0.00 | 90 | 1026.1 | |
| 20260830040058 | 75 | 0.0 | 0.0 | 0.00 | 0.00 | 0.00 | 91 | 1026.3 | |
| 20260830035021 | 75 | 0.0 | 0.0 | 0.00 | 0.00 | 0.00 | 90 | 1026.1 | |
| 20260830034021 | 75 | 0.0 | 0.0 | 0.00 | 0.00 | 0.00 | 90 | 1026.1 | |
| 20260830033021 | 75 | 0.0 | 0.0 | 0.00 | 0.00 | 0.00 | 89 | 1026.0 | |
| 20260830032021 | 76 | 0.0 | 0.0 | 0.00 | 0.00 | 0.00 | 89 | 1025.9 | |
| 20260830031021 | 76 | 0.0 | 0.0 | 0.00 | 0.00 | 0.00 | 89 | 1025.9 | |
| 20260830030020 | 76 | 0.0 | 0.0 | 0.00 | 0.00 | 0.00 | 88 | 1025.6 | |
| 20260830025022 | 76 | 0.0 | 1.0 | 0.00 | 0.00 | 0.00 | 88 | 1025.7 | |
| 20260830024020 | 76 | 0.0 | 0.0 | 0.00 | 0.00 | 0.00 | 88 | 1025.5 | |
| 20260830023208 | 76 | 0.0 | 1.0 | 0.00 | 0.00 | 0.00 | 88 | 1025.5 | |
| 20260830022521 | 76 | 0.0 | 1.0 | 0.00 | 0.00 | 0.00 | 87 | 1025.5 | |
| 20260830021520 | 77 | 0.0 | 1.0 | 0.00 | 0.00 | 0.00 | 88 | 1025.5 | |
| 20260830020521 | 77 | 0.0 | 0.0 | 0.00 | 0.00 | 0.00 | 88 | 1025.3 | |
| 20260830015520 | 77 | 0.0 | 1.0 | 0.00 | 0.00 | 0.00 | 87 | 1025.3 | |
| 20260830014541 | 77 | 0.0 | 2.0 | 0.00 | 0.00 | 0.00 | 87 | 1025.2 | |
| 20260830013520 | 77 | 0.0 | 0.0 | 0.00 | 0.00 | 0.00 | 87 | 1025.1 | |
| 20260830012521 | 78 | 0.0 | 0.0 | 0.00 | 0.00 | 0.00 | 86 | 1025.3 | |
| 20260830011522 | 78 | 0.0 | 0.0 | 0.00 | 0.00 | 0.00 | 85 | 1025.1 |